Flight Track Log - Related Links

Times and Time Zones

All times are in EDT time to prevent confusion due to time zone crossing. See the N361EA flight status page for this flight to view local times or setup timezone preferences in your user account.

Time Position Orientation Groundspeed Altitude Reporting Facility
EDT Latitude Longitude Course Direction KTS MPH feet Rate Location/Type
06:01PM 48.2772 -119.6922 220° Southwest 191 220 12,000  Level Seattle Center
06:02PM 48.2439 -119.7189 208° Southwest 164 189 14,800 2,361 Climbing Seattle Center
06:03PM 48.2008 -119.7533 208° Southwest 150 173 16,800 1,091 Climbing Seattle Center
06:04PM 48.1533 -119.7828 202° Southwest 156 180 17,000 99 Climbing Seattle Center
06:05PM 48.1213 -119.7096 198° South  Level Estimated
06:05PM 48.0911 -119.8189 201° Southwest 194 223 17,000  Level Seattle Center
06:06PM 48.0381 -119.8525 203° Southwest 208 239 17,000  Level Seattle Center
06:07PM 47.9822 -119.8864 202° Southwest 215 247 17,000  Level Seattle Center
06:08PM 47.9269 -119.9208 203° Southwest 216 249 17,000 645 Level Seattle Center
06:09PM 47.8789 -119.9483 201° Southwest 199 229 18,300 836 Climbing Seattle Center
06:10PM 47.8325 -119.9775 203° Southwest 183 211 18,700 197 Climbing Seattle Center
06:11PM 47.7819 -120.0097 203° Southwest 196 226 18,700 -545 Level Seattle Center
06:12PM 47.7214 -120.0628 211° Southwest 223 257 17,600 -645 Descending Seattle Center
06:13PM 47.6661 -120.1072 208° Southwest 225 259 17,400 15 Descending Seattle Center
06:18PM 47.3823 -120.3520 213° Southwest 214 246 17,700 48 Climbing FlightAware ADS-B
06:19PM 47.3539 -120.3770 211° Southwest 213 245 17,700  Level FlightAware ADS-B
06:19PM 47.3367 -120.3890 200° South 215 247 17,700 -162 Level FlightAware ADS-B
06:20PM 47.2848 -120.4120 197° South 215 247 17,500 -281 Descending FlightAware ADS-B
06:20PM 47.2744 -120.4160 194° South 221 254 17,400 -667 Descending FlightAware ADS-B
06:21PM 47.2570 -120.4190 186° South 229 264 17,200 -766 Descending FlightAware ADS-B
06:21PM 47.2251 -120.4250 187° South 231 266 16,800 -677 Descending FlightAware ADS-B
06:22PM 47.1911 -120.4310 187° South 232 267 16,500 -636 Descending FlightAware ADS-B
06:22PM 47.1555 -120.4380 187° South 232 267 16,100 -774 Descending FlightAware ADS-B
06:23PM 47.1257 -120.4430 187° South 231 266 15,700 -1,119 Descending FlightAware ADS-B
06:24PM 47.0128 -120.4640 187° South 232 267 13,600 -1,554 Descending FlightAware ADS-B
06:26PM 46.9233 -120.4828 187° South 228 262 10,700 -2,027 Descending Seattle Center
06:27PM 46.8628 -120.5022 192° South 225 259 8,600 -2,479 Descending Seattle Center
06:28PM 46.8039 -120.5275 196° South 222 255 5,700 -2,281 Descending Seattle Center
06:29PM 46.7458 -120.5303 182° South 211 243 4,000 -1,377 Descending Seattle Center
06:30PM 46.6911 -120.5328 182° South 200 230 2,900 -694 Descending Seattle Center
06:31PM 46.6408 -120.5231 172° South 185 213 2,600 -248 Descending Seattle Center
06:32PM 46.5933 -120.5039 165° South 181 208 2,400 -541 Descending Seattle Center
06:33PM 46.5606 -120.5047 181° South 134 154 1,500 -689 Descending Seattle Center
06:34PM 46.5669 -120.5414 284° West 92 106 1,000 -492 Descending Seattle Center
06:36PM 46.5667 -120.5333 306° West  Level FlightAware Approximate

Login

Don't have an account? Register now (free) for customized features, flight alerts, and more!